Regional Weather Roundup
Issued by NWS Kansas City/Pleasant Hill, MO

Home | Current Version | Previous Version | Text Only | Print | Product List | Glossary On
Versions: 1 2 3 4 5 6 7 8 9 10 11 12 13 14 15 16 17 18 19 20 21 22 23 24 25 26 27 28 29 30 31 32 33 34 35 36 37 38 39 40 41 42 43 44 45 46 47 48 49 50
000
ASUS43 KEAX 260511
RWREAX

WEATHER ROUNDUP FOR EASTERN KANSAS AND NORTHWEST MISSOURI
NATIONAL WEATHER SERVICE KANSAS CITY/PLEASANT HILL MO
1200 AM CDT SUN OCT 26 2014

KSZ040-057-103>105-MOZ028-029-037-043-260600-
...KANSAS CITY METROPOLITAN AREA...

CITY           SKY/WX    TMP DP  RH WIND       PRES   REMARKS
K.C. INTL      CLEAR     65  50  58 E8        30.00S
K.C. DOWNTOWN  CLEAR     64  51  62 NE3       29.99S
LEES SUMMIT    CLEAR     63  52  67 SE6       30.01S
OLATHE - IXD   CLEAR     63  57  81 SE6       30.00S
OLATHE - OJC   CLEAR     64  57  78 SE5       29.99S
LAWRENCE       CLEAR     61  55  81 SE6       29.98S

$$

MOZ001>008-011>017-020>025-030>033-038>040-044>046-053-054-260600-
...NORTHERN AND CENTRAL MISSOURI...

CITY           SKY/WX    TMP DP  RH WIND       PRES   REMARKS
ST. JOSEPH     CLEAR     62  47  57 E7        30.00F
MOSBY          CLEAR     54  54 100 CALM      30.00F
WHITEMAN AFB   CLEAR     61  55  80 E5        30.00F
CLINTON        CLEAR     57  57 100 CALM      30.01S FOG
SEDALIA        CLEAR     62  55  77 SE3       30.02F
WARSAW         NOT AVBL
MARSHALL       CLEAR     61  52  72 NE5       30.02S
CHILLICOTHE      N/A     61  45  55 NE3       30.04F
MOBERLY        CLEAR     57  45  62 NE5       30.04F
KIRKSVILLE     CLEAR     50  43  77 NE10      30.05F

$$

MOZ041-047>049-056>058-063>065-088>090-097-260600-
...EASTERN AND SOUTHERN MISSOURI...

CITY           SKY/WX    TMP DP  RH WIND       PRES   REMARKS
ST. LOUIS INTL CLEAR     60  50  69 CALM      30.03S
SPIRIT OF STL  CLEAR     52  50  93 CALM      30.02S
COLUMBIA       CLEAR     60  50  69 E8        30.02F
JEFFERSON CITY CLEAR     55  53  93 CALM      30.01F
MEXICO         CLEAR     54  52  94 CALM      30.04F
HANNIBAL       CLEAR     61  37  41 NE5       30.04F
ROLLA          CLEAR     60  54  80 CALM      30.02S
LEBANON        CLEAR     61  57  88 CALM      30.02F
OSAGE BEACH    CLEAR     57  54  88 CALM      30.01F
SPRINGFIELD    CLEAR     61  59  93 S5        30.01F
BRANSON        CLEAR     66  63  88 SW6       30.04S
NEVADA         CLEAR     61  61 100 SE3       30.00S FOG
JOPLIN         CLEAR     65  62  90 S7        30.00F
WEST PLAINS    CLEAR     59  56  89 CALM      30.03F

$$

IAZ060-094-KSZ022-034>040-054-083-096-NEZ052-066-093-260600-
...KANSAS...SOUTHEAST NEBRASKA AND IOWA...

CITY           SKY/WX    TMP DP  RH WIND       PRES   REMARKS
TOPEKA         CLEAR     63  58  83 CALM      29.98R
MANHATTAN      CLEAR     64  58  80 N5        29.95S
EMPORIA        CLEAR     65  61  87 S9        29.95F
CHANUTE        CLEAR     64  62  93 SE7       29.97F
WICHITA        CLEAR     65  58  78 S6        29.94S
OMAHA          CLEAR     60  36  40 E13       30.02F
LINCOLN        CLEAR     58  43  57 E5        30.00F
FALLS CITY     CLEAR     58  47  66 E8        29.99F
LAMONI         CLEAR     55  40  56 E7        30.04F
DES MOINES     CLEAR     53  41  63 CALM      30.06F

$$




USA.gov is the U.S. government's official web portal to all federal, state and local government web resources and services.